Tracking 22283 objects as of 28-Jan-2021
HD Live streaming from Space Station
objects crossing your sky now

STARLINK-1532

Track STARLINK-1532 now!
10-day predictions
STARLINK-1532 is classified as:


NORAD ID: 46068
Int'l Code: 2020-055AT
Perigee: 555.3 km
Apogee: 557.2 km
Inclination: 53.0 °
Period: 95.6 minutes
Semi major axis: 6927 km
RCS: Unknown
Launch date: August 7, 2020
Source: United States (US)
Launch site: AIR FORCE EASTERN TEST RANGE (AFETR)
aabbcc
Your satellite tracking list
Your tracking list is empty




NASA's NSSDC Master Catalog

Two Line Element Set (TLE):
1 46068U 20055AT  21027.45308024  .00024906  00000-0  17135-2 0  9994
2 46068  52.9972 198.9714 0001377 113.2004 246.9129 15.05775632 27876
Source of the keplerian elements: AFSPC